Regional Weather Roundup
Issued by NWS

Home | Current Version | Previous Version | Text Only | Print | Product List | Glossary On
Versions: 1 2 3 4 5 6 7 8 9 10 11 12 13 14 15 16 17 18 19 20 21 22 23 24 25 26 27
000
ASUS45 KTFX 190610
RWRMT
MONTANA REGIONAL WEATHER ROUNDUP
NATIONAL WEATHER SERVICE GREAT FALLS MT
1100 PM MST SAT NOV 18 2017

NOTE: "FAIR" INDICATES FEW OR NO CLOUDS BELOW 12000 FEET WITH NO
SIGNIFICANT WEATHER AND/OR OBSTRUCTIONS TO VISIBILITY.

MTZ001>007-043-190700-
WEST OF THE DIVIDE

CITY           SKY/WX    TMP DP  RH WIND       PRES   REMARKS
KALISPELL      FAIR      24  22  91 CALM      30.14S
MISSOULA       FAIR      26  21  81 CALM      30.17F
BUTTE          FAIR      13   6  74 CALM      30.15F
MULLAN PASS    FAIR      23  18  81 VRB6      30.07S WCI  16
ANACONDA         N/A     28  12  50 S14       30.13F WCI  17
EUREKA           N/A     34  25  69 MISG      30.13F
HAMILTON         N/A     28  18  64 CALM      30.16S
LIBBY            N/A     25  25 100 CALM      30.15R
RONAN            N/A     26  21  81 CALM      30.16F
$$

MTZ008-052>055-190700-
SOUTHWEST MONTANA

CITY           SKY/WX    TMP DP  RH WIND       PRES   REMARKS
BOZEMAN        FAIR      23  15  71 E6        30.15F WCI  16
DILLON         FAIR      24  14  65 S8        30.19F WCI  15
W YELLOWSTONE  MOCLDY    21  16  79 SW6       30.28S WCI  14
ENNIS          CLOUDY    27  16  63 S16G22    30.25F WCI  14
$$

MTZ009-010-012-014-046-048-049-054-190700-
EAST SLOPES AND CENTRAL MONTANA

CITY           SKY/WX    TMP DP  RH WIND       PRES   REMARKS
CUT BANK       FAIR      33  17  51 SW16      29.94F WCI  23
GREAT FALLS    FAIR      39  13  34 SW24      29.98F WCI  28
MALMSTROM AFB  FAIR      38  15  38 SW24G32   29.99F WCI  27
HELENA         FAIR      28  19  69 CALM      30.12S
BOWMANS CRNR   FAIR      31  15  49 S18       30.02F WCI  20
CHOTEAU          N/A     34  16  47 S13       30.00F WCI  25
FAIRFIELD      FAIR      36  15  43 S24G31    30.00F WCI  24
POWER          FAIR      37  13  37 SW23G32   29.99R WCI  26
RAYNESFORD     FAIR      42   9  26 W23G29    29.96F
ULM            MOCLDY    38  15  38 SW20G29   30.01F WCI  29
$$

MTZ011-013-016-021-045-047-050-051-190700-
NORTH CENTRAL MONTANA

CITY           SKY/WX    TMP DP  RH WIND       PRES   REMARKS
HAVRE          FAIR      33  23  66 SW20      29.94F WCI  21
LEWISTOWN      FAIR      32  16  51 SW14      29.99F WCI  22
N BAR RANCH    FAIR      34  12  40 SW8       30.02F WCI  27
CHINOOK          N/A     34  21  60 W9        29.95S WCI  26
DENTON         FAIR      36  16  43 S13G20    29.95F WCI  27
GEYSER         FAIR      33  14  45 W13       29.98F WCI  24
GRASS RANGE    FAIR      33  16  50 W9        29.96F WCI  25
STANFORD       FAIR      40   8  26 W20       29.97F
WINIFRED       FAIR      32  18  54 SW7       29.96F WCI  26
$$

MTZ017>020-022>027-061-062-190700-
NORTHEAST MONTANA

CITY           SKY/WX    TMP DP  RH WIND       PRES   REMARKS
GLASGOW        FAIR      29  20  69 CALM      29.96F
JORDAN           N/A     33  23  66 SW8       29.99F WCI  26
SIDNEY         FAIR      32  21  64 W13       30.00F WCI  22
WOLF POINT     FAIR      19  15  84 SW5       29.99F
MALTA          CLEAR     18  16  93 CALM      29.97S
PLENTYWOOD       N/A     21  18  86 CALM      29.95F
POPLAR           N/A     27  19  74 CALM      29.99F
SCOBEY           N/A     25  12  57 CALM      29.92
$$

MTZ028>42-056>058-190700-
SOUTHCENTRAL AND SOUTHEAST MONTANA

CITY           SKY/WX    TMP DP  RH WIND       PRES   REMARKS
BAKER          FAIR      32  23  69 SW13      30.05F WCI  22
BILLINGS       FAIR      36  18  48 SW20      30.05F WCI  25
LIVINGSTON     FAIR      35  17  47 SW41G54   30.07S WCI  20
MILES CITY     FAIR      31  23  72 SW9       30.05F WCI  23
BIG TIMBER     CLEAR     37  14  38 W49G55    30.03F WCI  22
EKALAKA          N/A     33  17  52 S3        30.02F
FORSYTH          N/A     36  18  48 SW5       30.05F
HARLOWTON      FAIR      34  17  49 W26G39    30.02F WCI  21
LAUREL           N/A     36  18  48 W13       30.07F WCI  27
ROUNDUP          N/A     33  15  48 S10       29.95F WCI  25
$$

REGIONAL REPORTS...DAKOTAS

CITY           SKY/WX    TMP DP  RH WIND       PRES   REMARKS
WILLISTON      FAIR      26  19  74 W9        29.99F WCI  17
MINOT          FAIR      22  16  78 CALM      29.96F
DICKINSON      FAIR      25  19  78 W9        30.00F WCI  15
BEACH          FAIR      28  19  69 SW10      30.05F WCI  19
CROSBY         FAIR      16  14  93 S9        29.93F WCI   4
TIOGA          FAIR      21  19  93 SW5       29.97F
BISMARCK       FAIR      19  16  88 CALM      30.06S
GRAND FORKS    FAIR      12   6  77 W9        30.04S WCI   0
FARGO          FAIR      14   9  80 W8        30.07S WCI   3
BUFFALO SD       N/A     27  20  75 W10       30.01S WCI  17
RAPID CITY     FAIR      23  15  71 CALM      30.13F
$$

REGIONAL REPORTS...WYOMING/IDAHO/WASHINGTON

CITY           SKY/WX    TMP DP  RH WIND       PRES   REMARKS
GILLETTE       FAIR      30  18  60 SW15      30.09F WCI  19
SHERIDAN       FAIR      25  18  74 S3        30.06F
BUFFALO WY     FAIR      30  12  47 S9        30.08F WCI  22
CODY           FAIR      36  11  35 SW12G22   30.12S WCI  28
YELLOWSTONE LA   N/A     15  13  91 CALM      30.28F
IDAHO FALLS    FAIR      23  20  88 N3        30.34F
SALMON         FAIR      22  18  85 CALM      30.28R
BOISE          FAIR      34  22  61 S9        30.27S WCI  27
SPOKANE        MOCLDY    33  31  92 CALM      30.14S
$$

REGIONAL REPORTS...ALBERTA

CITY           SKY/WX    TMP DP  RH WIND       PRES   REMARKS
EDMONTON       PTCLDY    25  18  74 SW5       29.75F
CALGARY        MOCLDY    37  16  41 SW6       29.79F
LETHBRIDGE     CLEAR     32  19  59 SW13      29.89F WCI  22
MEDICINE HAT   PTCLDY    28  21  74 SW15G22   29.87F WCI  17
$$

REGIONAL REPORTS...SASKATCHEWAN

CITY           SKY/WX    TMP DP  RH WIND       PRES   REMARKS
SWIFT CURRENT  CLOUDY    32  23  69 W18       29.83S WCI  20
REGINA         CLOUDY    10   9  92 S6        29.86F WCI   1
SASKATOON      CLOUDY    12   7  79 SW10      29.82F WCI  -1
$$




USA.gov is the U.S. government's official web portal to all federal, state and local government web resources and services.